User: anonymous   Login
Location: Unspecified
(0.0000°N, 0.0000°E)
Time: 04:30:51
(UTC+00:00)
Language:

TBA - TO BE ASSIGNED - Orbit

View from above orbital plane
View from above orbital plane
View from above satellite
View from above satellite

Ground track
Ground track

The orbit is defined by the following mean orbital elements,

1 68708U          26145.58335647 +.00000000 +00000-0 -48365-1 0 00009
2 68708  53.1602  37.2263 0001129 116.6752 164.4409 15.43353468    02
Epoch (UTC): 25 May 2026 14:00:01
Eccentricity: 0.0001129
inclination: 53.1602°
perigee height: 435 km
apogee height: 437 km
right ascension of ascending node: 37.2263°
argument of perigee: 116.6752°
revolutions per day: 15.43353468
mean anomaly at epoch: 164.4409°

The dashed part of the orbit path shows where the satellite is in the earth's shadow,  

DLR